[[{"header":{"parameterUnit":"m.s-1","parameterCategory":1,"la1":30.2991,"la2":30.254,"lo1":-89.0895,"lo2":-89.0444,"dy":0.0017,"dx":0.0017,"nx":28,"ny":28,"refTime":"2024-04-06T09:00:00:Z","depth":0,"parameterNumber":2,"parameterNumberName":"U-component_of_WINDS"},"data":[0,0,0,0,0,0,0,0,0,0,0,0,0,0,0,0,0,0,0,0,0,0,0,0,0,0,0,0,0,0,0,0,0,0,0,0,0,0,0,0,0,0,0,0,0,0,0,0,0,0,0,0,0,0,0,0,0,0,0.5263,0.5262,0,0.5262,0.5262,0.5262,0.5211,0.521,0.5208,0.5207,0.5211,0.5212,0.5214,0,0,0,0,0,0,0,0,0,0,0,0,0,0.5221,0.5222,0.5263,0.5262,0.5262,0.5262,0.5262,0.5262,0.5211,0.521,0.5208,0.5207,0.5211,0.5212,0.5214,0,0,0,0,0,0,0,0,0,0,0,0,0,0.5232,0.5223,0.5263,0.5237,0.5235,0.5262,0.5262,0.5262,0.5212,0.521,0.5208,0.5206,0.521,0.5212,0.5214,0.5267,0,0,0.522,0.5221,0,0,0,0,0,0,0,0,0.5232,0.5234,0.5241,0.5239,0.5236,0.5234,0.5249,0.5264,0.5212,0.5221,0.5207,0.5205,0.5221,0.5222,0.5226,0.5267,0.5267,0.5221,0.5222,0.5223,0.5223,0,0,0,0,0,0,0,0.5231,0.5233,0.5262,0.5241,0.5238,0.5226,0.5226,0.5252,0.5232,0.522,0.5216,0.5216,0.5219,0.5225,0.5226,0.5268,0.522,0.5222,0.5224,0.5224,0.5349,0.5351,0,0,0,0,0,0,0.5233,0.5233,0.5262,0.5262,0.5229,0.5229,0.5228,0.5237,0.5232,0.5229,0.5218,0.5214,0.5222,0.5224,0.5226,0.5286,0.5223,0.5225,0.5226,0.5347,0.535,0.5352,0,0,0,0,0,0,0.5233,0.5236,0.5262,0.5247,0.5249,0.5231,0.5242,0.5238,0.5243,0.523,0.5227,0.5227,0.522,0.5223,0.5256,0.5286,0.5225,0.5227,0.5345,0.5348,0.5351,0.5408,0,0,0,0,0,0,0.5232,0.5236,0.5256,0.5247,0.525,0.5293,0.5244,0.524,0.5247,0.5241,0.5238,0.5235,0.5219,0.5254,0.5258,0.5287,0.5229,0.5342,0.5346,0.535,0.5403,0.5413,0.542,0,0,0,0,0,0.523,0.5274,0.5257,0.5261,0.5274,0.5294,0.5296,0.5275,0.5249,0.5269,0.526,0.5236,0.5281,0.5257,0.5262,0.5292,0.534,0.5345,0.535,0.5399,0.5411,0.542,0,0,0,0,0,0,0.5288,0.5272,0.5254,0.5296,0.5296,0.5286,0.531,0.5288,0.5298,0.5292,0.5267,0.5267,0.5304,0.5301,0.5275,0.5342,0.5306,0.5312,0.5342,0.5353,0.5361,0.5361,0.5231,0,0,0,0,0,0.5306,0.5322,0.5308,0.5346,0.5347,0.5328,0.5336,0.532,0.532,0.5321,0.5315,0.5317,0.5332,0.5342,0.5355,0.5402,0.54,0.5425,0.5434,0.5441,0.5447,0.5469,0.548,0.5368,0.5368,0.5368,0,0,0.5342,0.5335,0.5348,0.5357,0.5356,0.5374,0.5329,0.5351,0.5364,0.5325,0.5355,0.535,0.5351,0.5391,0.5408,0.539,0.5477,0.5447,0.5453,0.5454,0.5475,0.5486,0.5496,0.5371,0.537,0.537,0,0,0.5418,0.5415,0.5445,0.5444,0.5442,0.5428,0.5436,0.5428,0.5422,0.5452,0.5422,0.5438,0.5464,0.5465,0.5469,0.5542,0.552,0.5547,0.5592,0.5615,0.5624,0.5632,0.5657,0.5666,0.5553,0.5553,0.5553,0,0.5464,0.549,0.5464,0.5487,0.5491,0.5454,0.5484,0.5485,0.5488,0.5492,0.5471,0.5501,0.55,0.5538,0.5555,0.556,0.5568,0.5548,0.5624,0.5632,0.5639,0.5662,0.5672,0.5556,0.5556,0.5556,0.5555,0,0.5546,0.5564,0.5589,0.5589,0.5597,0.5624,0.5602,0.5613,0.5595,0.5584,0.5614,0.561,0.562,0.5628,0.5612,0.5664,0.5653,0.5629,0.5592,0.5653,0.5675,0.5684,0.5561,0.556,0.5559,0.5558,0,0,0.566,0.5644,0.5654,0.5653,0.5646,0.566,0.5684,0.5692,0.5702,0.5704,0.5724,0.5746,0.5722,0.5727,0.571,0.573,0.5787,0.5703,0.5703,0.5718,0.5842,0.586,0.5871,0.5771,0.5773,0.5774,0.5842,0,0.5733,0.5772,0.5749,0.5792,0.5808,0.5771,0.5792,0.579,0.578,0.5792,0.5782,0.5797,0.5766,0.5768,0.5786,0.5776,0.5811,0.5771,0.579,0.5791,0.579,0.5883,0.5902,0.5967,0.585,0.5852,0.5853,0,0.5823,0.5827,0.5871,0.5859,0.5865,0.5884,0.5888,0.59,0.5897,0.5888,0.5892,0.587,0.5893,0.5856,0.5888,0.5861,0.5867,0.5863,0.5865,0.5866,0.5826,0.5886,0.5987,0.5997,0.5866,0.5865,0.5864,0,0.5901,0.5917,0.5945,0.5946,0.5933,0.5947,0.5942,0.5937,0.5943,0.5947,0.595,0.5958,0.5962,0.5968,0.5949,0.5924,0.5982,0.5944,0.5976,0.5976,0.599,0.599,0.6093,0.5995,0.5995,0.5994,0.5994,0,0.5984,0.6013,0.5979,0.5997,0.6027,0.5999,0.6031,0.6022,0.6017,0.6032,0.6002,0.6017,0.599,0.6002,0.5987,0.6015,0.6017,0.6011,0.6007,0.6014,0.6014,0.6018,0.6013,0.5997,0.5996,0.5996,0.5995,0,0.6077,0.6056,0.6084,0.6068,0.6064,0.6087,0.6074,0.6089,0.6076,0.6096,0.6099,0.6078,0.6091,0.6071,0.6083,0.6073,0.611,0.6099,0.6111,0.6108,0.614,0.6137,0.6249,0.6262,0.6155,0.6156,0.6157,0,0.6132,0.6152,0.6138,0.6144,0.6141,0.6153,0.6158,0.6131,0.6137,0.6133,0.6149,0.6159,0.6165,0.6187,0.6174,0.6182,0.6171,0.6209,0.6172,0.6178,0.6171,0.617,0.6171,0.6217,0.6219,0.622,0.6221,0,0.6231,0.6218,0.6226,0.6229,0.6234,0.6236,0.6236,0.6243,0.6215,0.6224,0.6235,0.6239,0.6249,0.6259,0.6263,0.6259,0.6235,0.6232,0.624,0.6247,0.6253,0.625,0.6132,0.623,0.6229,0.6228,0.6228,0.6228,0.6306,0.6321,0.6312,0.6321,0.6317,0.6317,0.6329,0.6317,0.6325,0.633,0.6313,0.6328,0.6323,0.6325,0.6324,0.6335,0.6318,0.633,0.6332,0.6336,0.634,0.6251,0.6336,0.6336,0.6335,0.6335,0.6335,0,0.6402,0.6394,0.6402,0.6401,0.6407,0.6382,0.6379,0.6387,0.64,0.6396,0.6401,0.6414,0.6422,0.6409,0.6415,0.6427,0.6416,0.6429,0.6429,0.6428,0.6355,0.6348,0.6438,0.6438,0.6438,0.6438,0.6438,0.6438,0.6454,0.6478,0.6464,0.6486,0.6478,0.6491,0.6491,0.649,0.6487,0.6501,0.6507,0.6498,0.649,0.6495,0.6501,0.6497,0.6501,0.6518,0.651,0.6443,0.6433,0.6423,0.6416,0.6519,0.6519,0.6581,0.6582,0.6582]},{"header":{"parameterUnit":"m.s-1","parameterCategory":1,"la1":30.2991,"la2":30.254,"lo1":-89.0895,"lo2":-89.0444,"dy":0.0017,"dx":0.0017,"nx":28,"ny":28,"refTime":"2024-04-06T09:00:00:Z","depth":0,"parameterNumber":3,"parameterNumberName":"V-component_of_WINDS"},"data":[0,0,0,0,0,0,0,0,0,0,0,0,0,0,0,0,0,0,0,0,0,0,0,0,0,0,0,0,0,0,0,0,0,0,0,0,0,0,0,0,0,0,0,0,0,0,0,0,0,0,0,0,0,0,0,0,0,0,1.0033,1.0035,0,1.0167,1.0168,1.017,1.0171,1.0169,1.0167,1.0166,1.0301,1.0306,1.0311,0,0,0,0,0,0,0,0,0,0,0,0,0,0.9775,0.978,1.0033,1.0035,1.0036,1.0166,1.0168,1.017,1.0171,1.0169,1.0167,1.0165,1.0299,1.0305,1.0311,0,0,0,0,0,0,0,0,0,0,0,0,0,0.9896,0.9781,1.0033,1.0052,1.0056,1.0166,1.0168,1.0171,1.0171,1.0169,1.0166,1.0164,1.0297,1.0305,1.0312,1.0412,0,0,1.0336,1.0339,0,0,0,0,0,0,0,0,0.9889,0.9905,1.0048,1.0051,1.0055,1.0149,1.0127,1.0251,1.0172,1.0127,1.0166,1.0163,1.0252,1.0264,1.0294,1.0418,1.0424,1.0337,1.0342,1.0345,1.0347,0,0,0,0,0,0,0,0.988,0.9899,1.0086,1.005,1.0054,1.0053,1.0068,1.015,1.0203,1.0131,1.0132,1.0147,1.0254,1.0287,1.0298,1.0426,1.0337,1.0343,1.0348,1.0351,1.0635,1.0637,0,0,0,0,0,0,0.9868,0.9892,1.0082,1.009,0.9964,1.006,1.0076,1.0122,1.0202,1.0211,1.0149,1.0147,1.0275,1.0288,1.0302,1.0423,1.0345,1.0352,1.0357,1.0632,1.0635,1.0638,0,0,0,0,0,0,0.9863,0.9885,1.0076,0.9991,1.0015,1.0067,1.0118,1.0126,1.0159,1.0216,1.0225,1.0174,1.0273,1.0291,1.0384,1.0428,1.0356,1.0363,1.0628,1.0633,1.0637,1.0665,0,0,0,0,0,0,0.9855,0.9883,0.9923,0.9992,1.002,1.0157,1.0121,1.013,1.0172,1.017,1.0241,1.025,1.0273,1.0372,1.0392,1.0437,1.0369,1.0625,1.063,1.0635,1.0661,1.067,1.0678,0,0,0,0,0,0.9846,0.9925,0.9925,0.9947,1.007,1.016,1.0175,1.02,1.0176,1.0215,1.0251,1.0248,1.0419,1.0382,1.0404,1.0452,1.0622,1.0629,1.0635,1.0657,1.0668,1.0678,0,0,0,0,0,0,0.986,0.9935,0.9935,1.0039,1.0093,1.016,1.021,1.0212,1.0273,1.0269,1.0296,1.0312,1.0404,1.0437,1.0394,1.0551,1.0518,1.0529,1.0526,1.0538,1.0546,1.0537,1.0375,0,0,0,0,0,0.9875,0.9942,1.0003,1.0089,1.0116,1.0158,1.0198,1.0212,1.0269,1.0292,1.0335,1.0389,1.0455,1.0498,1.0562,1.0664,1.0679,1.0708,1.0716,1.0723,1.0733,1.0788,1.0801,1.0659,1.0659,1.0659,0,0,0.9907,0.9956,0.9997,1.0093,1.0137,1.0204,1.0178,1.0251,1.0301,1.0303,1.0393,1.0426,1.0488,1.0586,1.0631,1.0616,1.0775,1.0732,1.0737,1.0743,1.0796,1.0809,1.0821,1.0664,1.0663,1.0662,0,0,1.0,1.0044,1.012,1.0164,1.0229,1.0256,1.0274,1.034,1.0362,1.0453,1.0455,1.0514,1.0628,1.0672,1.0709,1.0815,1.0813,1.0834,1.088,1.0933,1.0945,1.0955,1.0992,1.1005,1.0843,1.0844,1.0844,0,1.0032,1.0135,1.0159,1.0232,1.0273,1.0277,1.0354,1.0394,1.0477,1.0505,1.0487,1.0628,1.067,1.0778,1.0803,1.0833,1.0853,1.0828,1.0941,1.0951,1.0961,1.0997,1.1011,1.0846,1.0845,1.0845,1.0845,0,1.0169,1.0241,1.0294,1.0374,1.0421,1.0495,1.0529,1.0574,1.0583,1.0611,1.0702,1.0753,1.0826,1.0852,1.0862,1.096,1.0949,1.0935,1.0903,1.0976,1.1011,1.1025,1.0849,1.0848,1.0847,1.0847,0,0,1.0278,1.0368,1.0387,1.0423,1.0494,1.0549,1.0622,1.0694,1.0731,1.0787,1.0849,1.0943,1.093,1.0972,1.0987,1.1033,1.1113,1.1014,1.1016,1.1031,1.1223,1.1233,1.1249,1.1112,1.1114,1.1116,1.1218,0,1.0379,1.051,1.0532,1.0647,1.0712,1.0715,1.0778,1.0828,1.0856,1.0914,1.0943,1.101,1.0988,1.1014,1.106,1.1093,1.1152,1.1086,1.1168,1.1171,1.1154,1.1267,1.1279,1.1372,1.1231,1.1234,1.1235,0,1.0515,1.0574,1.0695,1.0756,1.0784,1.0841,1.0907,1.0963,1.1018,1.1035,1.108,1.1088,1.1162,1.1125,1.1227,1.1181,1.1216,1.1237,1.1241,1.1251,1.1209,1.128,1.1402,1.1417,1.1256,1.1255,1.1253,0,1.0581,1.0691,1.0778,1.0808,1.0881,1.092,1.0952,1.1005,1.1046,1.1104,1.113,1.1195,1.1231,1.128,1.1305,1.1275,1.1404,1.1369,1.1419,1.1419,1.1448,1.1446,1.1578,1.1469,1.1468,1.1468,1.1468,0,1.0692,1.0766,1.0808,1.0862,1.0944,1.0967,1.1047,1.1078,1.1124,1.1183,1.1188,1.1242,1.1271,1.1329,1.1348,1.1429,1.1445,1.1459,1.1464,1.146,1.1458,1.1484,1.1478,1.1472,1.1471,1.147,1.147,0,1.0782,1.0813,1.0907,1.0968,1.0984,1.1042,1.1094,1.1144,1.117,1.1243,1.1262,1.1303,1.1371,1.1399,1.1483,1.1496,1.1588,1.1587,1.157,1.1572,1.162,1.1616,1.1775,1.1797,1.1671,1.1673,1.1674,0,1.0851,1.0908,1.0974,1.1014,1.1047,1.111,1.1152,1.1176,1.1219,1.1285,1.1327,1.1395,1.1451,1.1559,1.1596,1.1659,1.166,1.1711,1.167,1.1663,1.1661,1.1658,1.1663,1.1719,1.172,1.1722,1.1722,0,1.0971,1.0983,1.1043,1.1108,1.1158,1.121,1.1261,1.1292,1.1324,1.1371,1.1441,1.1484,1.1569,1.1636,1.1701,1.1732,1.1733,1.1735,1.175,1.1747,1.1734,1.1742,1.1592,1.1731,1.1731,1.173,1.1729,1.1729,1.1053,1.1103,1.1157,1.1223,1.1264,1.1311,1.1361,1.1393,1.1451,1.1523,1.1533,1.1607,1.1658,1.1745,1.1779,1.1836,1.1823,1.1845,1.1851,1.1856,1.1859,1.1724,1.1848,1.1847,1.1847,1.1847,1.1847,0,1.1173,1.1208,1.1268,1.1339,1.139,1.1385,1.1441,1.1484,1.1549,1.1597,1.1652,1.1731,1.1795,1.1835,1.1899,1.1937,1.1939,1.1953,1.1952,1.1959,1.1867,1.1848,1.1951,1.1951,1.1951,1.1951,1.1951,1.1951,1.1242,1.1326,1.1344,1.1448,1.1481,1.1554,1.1586,1.1629,1.1667,1.1755,1.1808,1.1834,1.1878,1.1946,1.2004,1.2014,1.2037,1.2053,1.2062,1.1976,1.1965,1.1955,1.1937,1.2057,1.2058,1.2149,1.215,1.215]}]]